ANA109 KJFK-RJTT

Flight info

Callsign ANA109
Flight time N/A
Altitude 38000
Route GREKI DCT JUDDS DCT CAM/N0486F300 DCT BUGSY DCT PELEE DCT 61N090W/N0488F320 66N100W 69N110W 71N120W 71N130W/N0490F340 DCT VOLOB DCT SCC Q12 OTZ DCT JUJXI DCT MARCC R338 NATES/N0483F350 R220 NIKLL/N0487F360 R220 NOGAL/N0474F370 R220 NODAN/N0473F380 R220 NANAC Y810 AKRIT Y807 POLIX
Aircraft B77W/H-SDE1E2E3FGHIJ2J3J4J5M1RWXY/LB1D1

Departure

Time N/A
Airport John F. Kennedy International Airport (KJFK)

Arrival

Time 2026-05-07 08:34
Airport Tokyo Haneda International Airport (RJTT)
Time Latitude Longitude Altitude Speed Heading
2026-05-07 06:55 47.60196 155.34320 36540 ft 407 kts 238°
2026-05-07 06:56 47.58372 155.31104 36811 ft 406 kts 238°
2026-05-07 06:56 47.56555 155.27902 37099 ft 405 kts 238°
2026-05-07 06:56 47.54754 155.24739 37592 ft 399 kts 238°
2026-05-07 06:56 47.52970 155.21611 37883 ft 399 kts 239°
2026-05-07 06:57 47.49359 155.15258 37865 ft 407 kts 238°
2026-05-07 06:57 47.45706 155.08861 37857 ft 406 kts 238°
2026-05-07 06:58 47.42073 155.02526 37857 ft 403 kts 238°
2026-05-07 06:58 47.38463 154.96243 37861 ft 400 kts 238°
2026-05-07 06:59 47.34891 154.90035 37860 ft 398 kts 239°
2026-05-07 06:59 47.31305 154.83816 37860 ft 397 kts 239°
2026-05-07 07:00 47.27726 154.77621 37859 ft 397 kts 239°
2026-05-07 07:00 47.24133 154.71416 37862 ft 398 kts 239°
2026-05-07 07:01 47.20535 154.65218 37859 ft 398 kts 238°
2026-05-07 07:01 47.16931 154.59025 37856 ft 399 kts 238°
2026-05-07 07:02 47.13319 154.52834 37854 ft 399 kts 238°
2026-05-07 07:02 47.09723 154.46684 37849 ft 399 kts 238°
2026-05-07 07:03 47.06102 154.40507 37853 ft 399 kts 238°
2026-05-07 07:03 47.02483 154.34345 37853 ft 398 kts 238°
2026-05-07 07:04 46.98860 154.28190 37845 ft 398 kts 238°
2026-05-07 07:04 46.95243 154.22061 37850 ft 397 kts 238°
2026-05-07 07:05 46.91651 154.15988 37849 ft 397 kts 238°
2026-05-07 07:05 46.88041 154.09896 37853 ft 396 kts 238°
2026-05-07 07:06 46.84433 154.03820 37848 ft 396 kts 238°
2026-05-07 07:06 46.80826 153.97761 37868 ft 395 kts 238°
2026-05-07 07:07 46.77216 153.91710 37849 ft 395 kts 238°
2026-05-07 07:07 46.73608 153.85677 37859 ft 394 kts 238°
2026-05-07 07:08 46.70002 153.79659 37846 ft 394 kts 238°
2026-05-07 07:08 46.66424 153.73701 37845 ft 393 kts 238°
2026-05-07 07:09 46.62821 153.67715 37842 ft 393 kts 238°
2026-05-07 07:09 46.59214 153.61736 37830 ft 392 kts 238°
2026-05-07 07:10 46.55608 153.55770 37840 ft 392 kts 238°
2026-05-07 07:10 46.52020 153.49849 37843 ft 392 kts 238°
2026-05-07 07:11 46.48408 153.43900 37840 ft 392 kts 238°
2026-05-07 07:11 46.44799 153.37969 37840 ft 392 kts 238°
2026-05-07 07:12 46.41190 153.32050 37841 ft 392 kts 238°
2026-05-07 07:12 46.37580 153.26142 37835 ft 392 kts 238°
2026-05-07 07:13 46.33963 153.20237 37839 ft 391 kts 238°
2026-05-07 07:13 46.30345 153.14341 37838 ft 391 kts 238°
2026-05-07 07:14 46.26726 153.08456 37852 ft 391 kts 238°
2026-05-07 07:14 46.23131 153.02621 37847 ft 391 kts 238°
2026-05-07 07:15 46.19501 152.96771 37836 ft 391 kts 238°
2026-05-07 07:15 46.15847 152.90948 37842 ft 391 kts 238°
2026-05-07 07:16 46.12193 152.85139 37840 ft 391 kts 238°
2026-05-07 07:16 46.08541 152.79340 37842 ft 390 kts 238°
2026-05-07 07:17 46.04892 152.73554 37841 ft 390 kts 238°
2026-05-07 07:17 46.01243 152.67778 37843 ft 390 kts 238°
2026-05-07 07:18 45.97593 152.62013 37846 ft 390 kts 237°
2026-05-07 07:18 45.93944 152.56261 37848 ft 390 kts 237°
2026-05-07 07:19 45.90312 152.50548 37843 ft 389 kts 237°
2026-05-07 07:19 45.86654 152.44807 37848 ft 389 kts 237°
2026-05-07 07:20 45.82990 152.39068 37845 ft 389 kts 237°
2026-05-07 07:20 45.79328 152.33345 37849 ft 389 kts 237°
2026-05-07 07:21 45.75671 152.27641 37850 ft 389 kts 237°
2026-05-07 07:21 45.72009 152.21940 37839 ft 389 kts 237°
2026-05-07 07:22 45.68346 152.16252 37841 ft 388 kts 237°
2026-05-07 07:22 45.64685 152.10577 37843 ft 388 kts 237°
2026-05-07 07:23 45.61041 152.04940 37840 ft 388 kts 237°
2026-05-07 07:23 45.57371 151.99274 37839 ft 388 kts 237°
2026-05-07 07:24 45.53701 151.93621 37846 ft 388 kts 237°
2026-05-07 07:24 45.50024 151.87968 37841 ft 388 kts 237°
2026-05-07 07:25 45.44507 151.79509 37855 ft 388 kts 237°
2026-05-07 07:26 45.40821 151.73872 37840 ft 389 kts 237°
2026-05-07 07:26 45.37136 151.68248 37842 ft 388 kts 237°
2026-05-07 07:27 45.33473 151.62669 37847 ft 388 kts 237°
2026-05-07 07:27 45.29776 151.57051 37847 ft 388 kts 237°
2026-05-07 07:28 45.26085 151.51451 37849 ft 388 kts 237°
2026-05-07 07:28 45.22389 151.45857 37851 ft 388 kts 237°
2026-05-07 07:29 45.18688 151.40265 37847 ft 388 kts 237°
2026-05-07 07:29 45.15014 151.34726 37849 ft 388 kts 237°
2026-05-07 07:30 45.11311 151.29155 37848 ft 388 kts 237°
2026-05-07 07:30 45.07610 151.23597 37849 ft 388 kts 236°
2026-05-07 07:31 45.03899 151.18036 37850 ft 388 kts 236°
2026-05-07 07:31 45.00185 151.12481 37854 ft 388 kts 236°
2026-05-07 07:32 44.96493 151.06972 37851 ft 388 kts 236°
2026-05-07 07:32 44.92778 151.01438 37852 ft 388 kts 236°
2026-05-07 07:33 44.89054 150.95903 37852 ft 388 kts 236°
2026-05-07 07:33 44.85333 150.90382 37863 ft 388 kts 236°
2026-05-07 07:34 44.81604 150.84861 37865 ft 389 kts 236°
2026-05-07 07:34 44.77894 150.79380 37857 ft 389 kts 236°
2026-05-07 07:35 44.74158 150.73870 37851 ft 389 kts 236°
2026-05-07 07:35 44.70412 150.68358 37856 ft 389 kts 236°
2026-05-07 07:36 44.66670 150.62862 37856 ft 389 kts 236°
2026-05-07 07:36 44.62926 150.57375 37853 ft 389 kts 236°
2026-05-07 07:37 44.59203 150.51929 37857 ft 388 kts 236°
2026-05-07 07:37 44.55456 150.46457 37861 ft 388 kts 236°
2026-05-07 07:38 44.51711 150.41001 37859 ft 388 kts 236°
2026-05-07 07:38 44.48592 150.36465 37862 ft 388 kts 236°
2026-05-07 07:39 44.44843 150.31022 37864 ft 388 kts 235°
2026-05-07 07:39 44.41090 150.25583 37863 ft 389 kts 235°
2026-05-07 07:40 44.37332 150.20148 37870 ft 389 kts 235°
2026-05-07 07:40 44.33566 150.14712 37871 ft 389 kts 235°
2026-05-07 07:41 44.29794 150.09279 37872 ft 390 kts 235°
2026-05-07 07:41 44.25255 150.02755 37872 ft 390 kts 235°
2026-05-07 07:42 44.17672 149.91890 37874 ft 391 kts 235°
2026-05-07 07:42 44.10053 149.81017 37877 ft 392 kts 235°
2026-05-07 07:43 44.02453 149.70213 37879 ft 393 kts 234°
2026-05-07 07:43 43.93617 149.57704 37891 ft 394 kts 234°
2026-05-07 07:44 43.78199 149.36013 37875 ft 396 kts 234°
2026-05-07 07:44 43.62661 149.14324 37882 ft 397 kts 234°
2026-05-07 07:45 43.47046 148.92696 37891 ft 398 kts 234°
2026-05-07 07:45 43.31351 148.71125 37894 ft 399 kts 233°
2026-05-07 07:46 43.15594 148.49638 37887 ft 399 kts 233°
2026-05-07 07:46 42.99790 148.28251 37890 ft 399 kts 233°
2026-05-07 07:47 42.77756 147.98676 37913 ft 400 kts 232°
2026-05-07 07:47 42.73798 147.93416 37904 ft 400 kts 232°
2026-05-07 07:48 42.69811 147.88123 37905 ft 400 kts 232°
2026-05-07 07:48 42.60173 147.75346 37902 ft 400 kts 232°
2026-05-07 07:49 42.44168 147.54250 37910 ft 401 kts 232°
2026-05-07 07:49 42.28117 147.33225 37922 ft 401 kts 231°
2026-05-07 07:50 42.12043 147.12298 37929 ft 402 kts 231°
2026-05-07 07:50 41.95964 146.91516 37918 ft 403 kts 231°
2026-05-07 07:51 41.79749 146.70699 37930 ft 404 kts 231°
2026-05-07 07:51 41.63469 146.49932 37947 ft 405 kts 230°
2026-05-07 07:52 41.47093 146.29194 37940 ft 405 kts 230°
2026-05-07 07:52 41.30707 146.08596 37943 ft 405 kts 229°
2026-05-07 07:53 41.14253 145.88062 37939 ft 406 kts 229°
2026-05-07 07:53 40.97707 145.67561 37943 ft 408 kts 229°
2026-05-07 07:54 40.81009 145.47022 37938 ft 411 kts 229°
2026-05-07 07:54 40.64169 145.26456 37946 ft 414 kts 228°
2026-05-07 07:55 40.47302 145.06002 37947 ft 416 kts 228°
2026-05-07 07:55 40.30191 144.85423 37941 ft 418 kts 228°
2026-05-07 07:56 40.12984 144.64873 37948 ft 419 kts 227°
2026-05-07 07:56 39.95667 144.44340 37941 ft 420 kts 227°
2026-05-07 07:57 39.78282 144.23873 37929 ft 421 kts 227°
2026-05-07 07:57 39.60861 144.03509 37929 ft 422 kts 226°
2026-05-07 07:58 39.43450 143.83300 37934 ft 423 kts 226°
2026-05-07 07:58 39.25835 143.62997 37936 ft 424 kts 226°
2026-05-07 07:59 39.08169 143.42776 37940 ft 425 kts 226°
2026-05-07 07:59 38.89787 143.23573 37905 ft 436 kts 210°
2026-05-07 07:59 38.77816 143.19796 37937 ft 449 kts 196°
2026-05-07 08:00 38.65481 143.17207 37937 ft 448 kts 196°
2026-05-07 08:00 38.41051 143.11799 37942 ft 447 kts 196°
2026-05-07 08:01 38.16482 143.06396 37938 ft 448 kts 195°
2026-05-07 08:01 37.91867 143.01019 37948 ft 450 kts 195°
2026-05-07 08:02 37.67148 142.95657 37950 ft 452 kts 195°
2026-05-07 08:02 37.42297 142.90302 37958 ft 452 kts 195°
2026-05-07 08:03 37.17481 142.84980 37952 ft 451 kts 195°
2026-05-07 08:03 37.06001 142.79916 37935 ft 437 kts 213°
2026-05-07 08:03 36.95458 142.72429 37954 ft 436 kts 213°
2026-05-07 08:04 36.74308 142.57578 37945 ft 435 kts 213°
2026-05-07 08:04 36.53188 142.42869 37946 ft 433 kts 214°
2026-05-07 08:05 36.32166 142.28316 37939 ft 432 kts 214°
2026-05-07 08:05 36.14583 142.16165 37943 ft 431 kts 214°
2026-05-07 08:05 36.05580 142.06907 37956 ft 419 kts 237°
2026-05-07 08:06 36.00710 141.93924 38007 ft 417 kts 246°
2026-05-07 08:06 35.94381 141.69994 37931 ft 423 kts 265°
2026-05-07 08:09 35.94352 141.68143 37954 ft 423 kts 267°
2026-05-07 08:09 35.94414 141.60899 37897 ft 417 kts 268°
2026-05-07 08:10 35.94496 141.53848 37617 ft 405 kts 267°
2026-05-07 08:10 35.94521 141.50382 37260 ft 403 kts 267°
2026-05-07 08:10 35.94538 141.46948 37148 ft 393 kts 267°
2026-05-07 08:10 35.94552 141.43643 37037 ft 377 kts 266°
2026-05-07 08:11 35.94564 141.40442 36340 ft 371 kts 266°
2026-05-07 08:11 35.94571 141.37255 35447 ft 372 kts 266°
2026-05-07 08:11 35.94576 141.34058 34570 ft 374 kts 266°
2026-05-07 08:11 35.94583 141.30853 33770 ft 373 kts 265°
2026-05-07 08:12 35.94590 141.27658 32993 ft 370 kts 265°
2026-05-07 08:12 35.94597 141.24540 32267 ft 367 kts 265°
2026-05-07 08:12 35.94603 141.21401 31528 ft 364 kts 266°
2026-05-07 08:12 35.94614 141.18292 30780 ft 362 kts 266°
2026-05-07 08:13 35.94629 141.15192 30027 ft 360 kts 266°
2026-05-07 08:13 35.94643 141.12110 29177 ft 358 kts 266°
2026-05-07 08:13 35.94657 141.09053 28437 ft 354 kts 266°
2026-05-07 08:13 35.94670 141.06044 27749 ft 347 kts 266°
2026-05-07 08:14 35.94680 141.03087 27010 ft 342 kts 266°
2026-05-07 08:14 35.94691 141.00162 26236 ft 337 kts 267°
2026-05-07 08:14 35.94969 140.97296 25380 ft 338 kts 278°
2026-05-07 08:14 35.95638 140.94549 24512 ft 339 kts 285°
2026-05-07 08:15 35.96636 140.91864 23659 ft 342 kts 294°
2026-05-07 08:15 35.97881 140.89366 22753 ft 340 kts 296°
2026-05-07 08:15 35.99134 140.86967 21873 ft 334 kts 294°
2026-05-07 08:15 36.00021 140.84391 21002 ft 320 kts 278°
2026-05-07 08:16 36.00324 140.81701 20167 ft 312 kts 269°
2026-05-07 08:16 36.00295 140.79055 19357 ft 306 kts 264°
2026-05-07 08:16 36.00174 140.76434 18572 ft 303 kts 263°
2026-05-07 08:16 36.00037 140.73849 17750 ft 301 kts 263°
2026-05-07 08:17 35.99896 140.71228 17202 ft 306 kts 263°
2026-05-07 08:17 35.99759 140.68628 16911 ft 299 kts 263°
2026-05-07 08:17 35.99630 140.66089 16440 ft 293 kts 263°
2026-05-07 08:17 35.99504 140.63589 15877 ft 291 kts 263°
2026-05-07 08:18 35.99381 140.61127 15326 ft 290 kts 263°
2026-05-07 08:18 35.99256 140.58621 14786 ft 288 kts 263°
2026-05-07 08:18 35.99135 140.56190 14346 ft 289 kts 263°
2026-05-07 08:18 35.99013 140.53722 14058 ft 287 kts 263°
2026-05-07 08:19 35.98892 140.51276 13832 ft 283 kts 263°
2026-05-07 08:19 35.98772 140.48860 13541 ft 281 kts 263°
2026-05-07 08:19 35.98651 140.46459 13231 ft 280 kts 263°
2026-05-07 08:19 35.98531 140.44067 12908 ft 279 kts 263°
2026-05-07 08:20 35.98411 140.41675 12579 ft 278 kts 263°
2026-05-07 08:20 35.98291 140.39294 12270 ft 277 kts 263°
2026-05-07 08:20 35.98171 140.36919 11959 ft 276 kts 263°
2026-05-07 08:20 35.98051 140.34559 11652 ft 275 kts 263°
2026-05-07 08:21 35.97930 140.32197 11332 ft 275 kts 263°
2026-05-07 08:21 35.97810 140.29842 11021 ft 275 kts 264°
2026-05-07 08:21 35.97689 140.27488 10730 ft 274 kts 264°
2026-05-07 08:21 35.97570 140.25177 10444 ft 273 kts 264°
2026-05-07 08:22 35.97449 140.22839 10144 ft 273 kts 264°
2026-05-07 08:22 35.97328 140.20503 9861 ft 272 kts 264°
2026-05-07 08:22 35.97206 140.18171 9550 ft 272 kts 264°
2026-05-07 08:22 35.97085 140.15845 9233 ft 272 kts 264°
2026-05-07 08:23 35.96963 140.13519 8915 ft 271 kts 265°
2026-05-07 08:23 35.96840 140.11191 8601 ft 271 kts 265°
2026-05-07 08:23 35.96717 140.08866 8277 ft 272 kts 265°
2026-05-07 08:23 35.96594 140.06533 7994 ft 271 kts 265°
2026-05-07 08:24 35.96470 140.04216 7697 ft 271 kts 265°
2026-05-07 08:24 35.96347 140.01897 7401 ft 270 kts 265°
2026-05-07 08:24 35.96223 139.99588 7118 ft 269 kts 265°
2026-05-07 08:24 35.96141 139.98061 6949 ft 268 kts 265°
2026-05-07 08:25 35.95977 139.95022 6583 ft 267 kts 265°
2026-05-07 08:25 35.95852 139.92731 6270 ft 268 kts 265°
2026-05-07 08:25 35.95556 139.90506 6051 ft 259 kts 248°
2026-05-07 08:25 35.94747 139.88508 5992 ft 261 kts 236°
2026-05-07 08:26 35.93927 139.87413 5816 ft 263 kts 217°
2026-05-07 08:26 35.92368 139.86196 5433 ft 266 kts 211°
2026-05-07 08:26 35.90773 139.85021 5100 ft 267 kts 211°
2026-05-07 08:27 35.89191 139.83844 4885 ft 261 kts 211°
2026-05-07 08:27 35.87666 139.82695 4892 ft 256 kts 212°
2026-05-07 08:27 35.86136 139.81531 4868 ft 263 kts 212°
2026-05-07 08:27 35.84560 139.80324 4691 ft 267 kts 212°
2026-05-07 08:28 35.82994 139.79118 4521 ft 265 kts 212°
2026-05-07 08:28 35.81449 139.77923 4330 ft 254 kts 212°
2026-05-07 08:28 35.80001 139.76804 4172 ft 241 kts 212°
2026-05-07 08:28 35.78573 139.75696 4045 ft 248 kts 213°
2026-05-07 08:29 35.77126 139.74574 3827 ft 244 kts 213°
2026-05-07 08:29 35.75689 139.73459 3481 ft 245 kts 212°
2026-05-07 08:29 35.74250 139.72343 3393 ft 242 kts 212°
2026-05-07 08:29 35.72836 139.71246 3337 ft 238 kts 212°
2026-05-07 08:30 35.71437 139.70164 3136 ft 238 kts 212°
2026-05-07 08:30 35.70049 139.69119 2920 ft 226 kts 206°
2026-05-07 08:30 35.68593 139.68815 2780 ft 204 kts 174°
2026-05-07 08:30 35.67316 139.69255 2576 ft 184 kts 163°
2026-05-07 08:31 35.66184 139.69837 2355 ft 169 kts 161°
2026-05-07 08:31 35.65162 139.70422 2124 ft 155 kts 157°
2026-05-07 08:31 35.64263 139.71024 1935 ft 142 kts 155°
2026-05-07 08:31 35.63391 139.71636 1783 ft 145 kts 155°
2026-05-07 08:32 35.62529 139.72249 1621 ft 140 kts 155°
2026-05-07 08:32 35.61691 139.72847 1401 ft 138 kts 155°
2026-05-07 08:32 35.60863 139.73438 1213 ft 138 kts 154°
2026-05-07 08:32 35.60031 139.74033 1029 ft 143 kts 154°
2026-05-07 08:33 35.59167 139.74647 843 ft 141 kts 154°
2026-05-07 08:33 35.58329 139.75247 666 ft 138 kts 153°
2026-05-07 08:33 35.57503 139.75835 474 ft 138 kts 151°
2026-05-07 08:33 35.56666 139.76439 296 ft 142 kts 152°
2026-05-07 08:34 35.55826 139.77047 137 ft 138 kts 153°
2026-05-07 08:34 35.55009 139.77627 44 ft 131 kts 153°
2026-05-07 08:34 35.54283 139.78126 26 ft 102 kts 150°
2026-05-07 08:34 35.53940 139.78390 29 ft 35 kts 137°
2026-05-07 08:35 35.53838 139.78586 27 ft 18 kts 93°
2026-05-07 08:35 35.53935 139.78629 30 ft 18 kts 337°
2026-05-07 08:35 35.54023 139.78565 31 ft 13 kts 328°
2026-05-07 08:35 35.54104 139.78505 31 ft 18 kts 329°
2026-05-07 08:36 35.54215 139.78450 27 ft 15 kts
2026-05-07 08:36 35.54287 139.78543 31 ft 15 kts 60°
2026-05-07 08:36 35.54352 139.78681 35 ft 17 kts 60°
2026-05-07 08:36 35.54391 139.78766 38 ft 8 kts 60°
2026-05-07 08:37 35.54438 139.78780 37 ft 9 kts 338°
2026-05-07 08:37 35.54494 139.78743 35 ft 7 kts 330°
2026-05-07 08:37 35.54524 139.78721 34 ft 1 kts 330°
2026-05-07 08:37 35.54532 139.78716 34 ft 0 kts 330°